Location: Caltech
(34.1382°N, 118.1253°W)
Time: 04:32:21
(UTC-07:00)

Transit 2A - Visible Passes

Search period start: 02 June 2015 00:00
Search period end: 12 June 2015 00:00
Orbit: 593 x 967 km, 66.7° (Epoch: 01 June)

Date Brightness Start Highest point End Pass type
(mag) Time Alt. Az. Time Alt. Az. Time Alt. Az.
02 Jun 6.8 21:18:07 10° S 21:24:01 44° ESE 21:30:02 10° NE visible
02 Jun 8.2 23:01:57 10° WSW 23:07:31 30° NW 23:12:56 10° N visible
03 Jun 7.2 20:44:58 10° SSE 20:50:18 30° ESE 20:55:49 10° NE visible
03 Jun 7.6 22:27:30 10° SW 22:33:30 42° WNW 22:39:26 10° NNE visible
04 Jun 7.1 21:53:18 10° SW 21:59:34 59° WNW 22:05:48 10° NNE visible
04 Jun 9.5 23:43:14 10° NW 23:44:16 10° NW 23:44:55 10° NW visible
05 Jun 6.6 21:19:19 10° SSW 21:25:42 83° WNW 21:32:04 10° NNE visible
05 Jun 9.3 23:06:29 10° W 23:10:00 15° NW 23:13:11 10° NNW visible
06 Jun 6.4 20:45:35 10° SSW 20:51:53 71° ESE 20:58:13 10° NNE visible
06 Jun 9.0 22:31:10 10° W 22:35:49 20° NW 22:40:12 10° N visible
07 Jun 8.6 21:56:19 10° WSW 22:01:42 27° NW 22:06:55 10° N visible
08 Jun 9.2 05:05:08 10° N 05:08:31 17° NE 05:11:52 10° E visible
08 Jun 8.1 21:21:46 10° SW 21:27:41 38° WNW 21:33:27 10° N visible
09 Jun 9.5 04:32:27 10° NNE 04:34:19 12° NE 04:36:21 10° ENE visible
09 Jun 7.4 20:47:30 10° SW 20:53:43 53° WNW 20:59:51 10° NNE visible
10 Jun 9.7 22:01:13 10° WNW 22:04:14 13° NW 22:06:52 10° NNW visible
11 Jun 7.6 05:05:50 10° NNW 05:10:47 40° ENE 05:15:17 10° SE visible
11 Jun 9.4 21:25:40 10° W 21:30:02 18° NW 21:34:04 10° N visible
